Temperature
23 23 22 23 24 25 28 31 31 31 31 31 30 30 29 28 26 25 24 24 22 22 22 22 21 21 20 20 20 19 19 19 19 18 18 18 18 18 18 18 18 18 18 18 18 18 18 18 18
23 22 24 25 24 27 29 31 31 31 31 30 30 30 29 28 27 26 24 23 22 22 22 22 21 21 20 20 20 19 19 19 19 18 18 18 18 18 18 18 18 18 18 18 18 18 18 18 18
24 24 26 27 26 28 30 31 31 31 31 30 30 30 29 27 26 25 24 23 22 21 21 22 21 21 20 20 20 19 19 19 19 18 18 18 18 18 18 18 18 18 18 18 18 18 18 18 18
23 26 27 28 29 31 32 32 32 31 31 30 30 29 27 26 26 25 24 23 22 20 21 21 21 21 20 20 20 19 19 19 19 18 18 18 18 18 18 18 18 18 18 18 18 18 18 18 18
25 27 27 27 30 32 33 33 32 31 31 30 30 28 26 25 25 24 23 23 21 20 20 21 21 21 20 20 20 19 19 19 18 18 18 18 18 18 18 18 18 18 18 18 18 18 18 18 18
27 29 27 28 30 33 33 33 32 32 31 30 30 28 25 24 24 24 23 23 22 20 20 21 20 20 20 20 19 19 19 19 19 18 18 18 18 18 18 18 18 18 18 18 18 18 18 18 18
28 29 29 30 31 32 33 33 32 32 31 30 30 28 25 24 23 23 23 23 21 20 20 21 20 20 20 19 19 19 19 19 19 18 18 18 18 18 18 18 18 18 18 18 18 18 18 18 18
29 30 29 31 32 32 33 33 32 32 31 30 30 28 25 23 23 23 23 22 21 20 20 20 20 20 19 19 19 19 19 19 18 18 18 18 18 18 18 18 18 18 18 18 18 18 18 18 18
29 30 29 31 32 33 33 33 32 32 31 30 29 27 25 23 23 22 22 22 21 20 19 19 19 19 19 19 19 19 18 18 18 18 18 18 18 18 18 18 18 18 18 18 18 18 18 18 18
31 30 31 33 34 33 33 33 33 32 30 28 27 25 25 23 23 22 22 22 21 20 19 19 19 19 18 18 18 18 18 18 18 18 18 18 17 17 17 18 18 18 18 18 18 18 18 18 18
32 31 33 33 34 33 33 33 33 32 30 28 27 26 25 24 23 22 22 22 21 20 20 19 19 19 19 18 18 18 18 18 18 18 18 18 18 17 17 18 18 18 18 17 18 18 17 17 17
32 33 33 33 33 33 33 33 33 32 30 29 27 26 25 24 23 22 22 22 21 20 20 19 19 19 19 19 18 18 18 18 18 18 18 18 18 18 17 18 18 18 17 17 17 17 17 17 17
32 33 33 33 33 33 33 33 32 31 30 29 28 26 25 24 23 22 22 21 21 20 20 19 19 19 19 19 18 18 18 18 18 18 18 18 18 18 18 18 18 17 17 17 17 17 17 17 17
33 33 33 33 33 33 33 32 31 29 29 29 28 26 25 24 23 22 21 21 20 20 19 19 19 19 19 19 18 18 18 18 18 18 18 18 18 18 17 17 18 17 17 17 17 17 17 17 17
32 32 32 33 33 34 33 31 30 29 29 29 28 26 25 24 23 22 21 21 20 20 19 19 19 19 19 18 18 18 18 18 18 18 18 18 18 18 18 17 17 17 17 17 17 17 17 17 17
32 31 31 32 33 34 33 30 30 29 30 29 28 26 25 24 23 22 21 20 20 19 19 19 19 18 18 18 18 18 18 18 18 18 18 18 17 17 17 17 17 17 17 17 17 17 17 17 17
31 31 31 32 33 34 33 31 31 30 30 29 27 26 24 23 23 22 21 20 20 19 19 19 18 18 18 18 18 18 18 18 18 18 18 18 17 17 17 17 17 17 17 17 17 17 17 17 17
30 31 31 31 33 33 32 32 31 31 30 29 27 26 24 23 22 21 20 20 20 19 18 18 18 18 18 18 18 18 18 18 18 18 18 18 17 17 17 17 17 17 17 17 17 17 17 17 17
32 32 31 32 33 33 32 32 31 30 30 29 27 26 24 23 22 21 20 20 19 19 18 18 18 18 18 18 18 18 18 18 18 18 18 17 17 17 17 17 17 17 17 17 17 17 17 17 17
32 31 31 32 33 33 32 31 31 30 30 29 28 26 25 23 22 21 20 19 19 19 18 18 18 18 18 18 18 18 18 18 18 18 18 17 17 17 17 17 17 17 17 17 16 16 17 17 17
31 31 31 31 32 33 31 30 30 29 29 28 28 27 25 24 22 21 20 19 19 19 18 18 18 18 18 18 18 18 18 18 18 17 17 17 17 17 17 17 17 17 17 17 16 16 17 17 17
30 32 32 32 31 30 30 28 28 28 28 28 27 27 25 24 23 21 20 19 19 19 19 18 18 18 18 18 18 18 18 18 18 18 17 17 17 17 17 17 17 17 16 16 16 16 16 17 17
31 32 32 32 31 30 29 28 27 28 27 28 28 27 26 25 23 22 21 20 19 19 18 18 18 18 18 18 18 18 18 18 18 17 17 17 17 17 16 16 16 16 16 16 16 16 16 17 17
32 32 31 31 30 28 27 26 27 28 28 28 29 28 26 25 24 22 21 20 20 19 19 18 18 18 18 18 18 18 18 18 18 17 17 17 17 17 16 16 16 16 16 16 16 16 16 16 17
32 30 28 28 26 25 26 26 27 29 30 30 30 28 27 25 24 22 21 20 20 19 19 18 18 18 18 18 18 18 18 18 18 17 17 17 17 17 16 16 16 16 16 16 16 16 16 16 16
31 30 28 27 26 25 25 24 27 30 31 31 30 28 27 26 24 23 22 21 20 19 19 18 18 18 18 18 18 18 18 17 17 17 17 17 17 17 17 17 17 16 16 16 16 16 16 16 16
30 31 31 30 28 27 26 26 27 29 30 30 30 28 27 26 25 23 22 21 20 19 19 19 18 18 18 18 18 18 18 17 17 17 17 17 17 17 17 17 17 16 16 16 16 16 16 16 16
32 31 31 29 27 27 27 26 25 26 29 30 30 29 28 26 25 24 22 21 20 20 19 19 18 18 18 18 18 18 18 18 17 17 17 17 17 17 17 17 17 16 16 16 16 16 16 16 16
31 31 30 30 29 27 26 25 25 25 27 29 30 29 28 27 25 24 23 22 21 20 19 19 18 18 18 18 17 17 17 18 17 17 17 17 17 17 17 17 16 16 16 16 16 16 16 16 16
32 31 30 29 28 29 27 26 27 26 27 28 29 28 27 26 25 24 23 22 21 20 20 19 18 18 18 18 17 17 17 17 17 17 17 17 17 17 17 17 16 16 16 16 16 16 16 16 16
Wind_Speed
11 13 11 6 4 5 4 7 10 11 10 10 9 7 11 12 8 7 11 17 23 22 21 20 19 17 16 16 17 16 16 15 14 13 13 12 12 12 12 12 12 12 13 13 13 13 13 13 13
12 15 11 4 4 4 3 8 9 10 8 6 6 7 10 11 9 10 14 20 24 22 20 19 20 19 18 17 17 16 16 15 14 13 13 12 12 12 12 12 12 12 13 13 13 13 13 13 12
13 18 8 4 7 5 5 8 8 8 6 5 5 7 9 8 8 9 15 20 22 21 20 21 21 20 18 17 17 16 16 15 14 13 12 12 12 12 12 12 12 13 13 13 13 13 13 12 11
9 8 4 6 10 4 6 6 5 5 4 4 5 5 8 8 6 12 17 19 21 21 21 22 21 20 19 18 17 16 16 15 14 13 13 12 12 12 13 12 12 12 13 13 13 13 13 12 11
11 5 6 8 10 3 6 5 4 3 3 4 5 7 8 7 9 15 15 18 19 19 20 22 21 20 19 18 17 16 16 15 14 13 13 12 12 12 13 12 12 12 12 12 12 12 12 11 9
8 6 7 7 6 4 5 4 3 3 3 2 3 6 7 8 10 13 14 16 18 19 19 20 21 20 19 18 17 16 16 15 14 13 13 13 12 12 12 12 12 12 11 11 11 11 10 10 8
10 10 11 10 6 3 3 3 3 2 2 2 1 5 7 9 10 12 13 14 17 20 19 17 18 18 18 17 16 16 15 15 14 13 13 12 13 12 12 12 11 11 10 10 10 9 9 8 7
10 9 12 9 5 3 4 4 3 3 1 2 1 4 9 12 12 12 12 14 16 17 19 17 17 17 16 15 16 16 15 14 14 13 13 13 12 13 12 12 11 10 10 9 9 8 8 7 6
12 10 10 9 6 4 5 5 3 1 1 2 5 7 13 17 16 15 13 13 14 14 15 17 16 15 16 16 16 15 14 14 13 12 12 12 11 12 11 12 11 10 9 8 7 7 7 7 7
10 10 11 9 7 7 7 7 6 3 1 5 7 8 16 16 16 16 15 15 16 15 13 12 15 14 14 14 14 12 12 12 11 11 11 9 8 10 11 13 11 10 9 8 7 7 7 8 8
13 14 13 10 8 8 9 8 7 5 1 4 8 11 13 15 14 15 15 15 16 15 12 11 13 11 11 9 10 9 9 10 9 10 9 7 8 9 11 9 9 9 9 8 8 8 8 7 4
14 14 13 11 10 9 9 9 6 4 3 5 8 12 13 14 14 13 13 14 14 13 12 11 10 8 8 9 7 6 6 6 6 7 8 6 3 3 5 5 7 8 7 5 6 4 2 3 4
14 14 15 13 12 10 9 9 6 5 4 5 8 11 12 12 12 12 12 12 13 14 13 11 10 8 7 7 5 7 5 6 7 9 7 7 3 3 3 3 2 3 6 5 2 2 3 2 1
14 14 14 14 13 11 10 7 3 3 2 3 6 8 11 11 12 12 12 13 13 12 12 11 11 10 9 6 4 5 6 5 7 8 8 6 5 3 3 3 1 1 3 3 2 3 3 1 1
15 16 14 14 14 10 8 5 1 6 6 4 5 6 8 9 11 12 13 13 14 12 11 11 11 10 9 8 7 5 5 6 5 6 7 5 5 6 3 3 2 2 4 4 1 2 3 3 3
17 16 15 13 14 9 8 5 4 6 6 4 5 6 7 8 10 11 14 13 14 13 11 10 11 10 8 7 6 5 4 5 5 7 7 5 6 6 3 3 3 2 4 3 2 1 2 2 2
17 15 15 11 11 7 6 4 4 5 4 6 6 6 7 8 8 10 13 13 13 14 13 11 9 11 9 8 5 4 4 4 5 7 7 6 6 6 3 3 3 2 2 2 2 3 1 1 2
14 13 11 9 7 7 7 6 4 5 5 6 8 8 7 8 9 10 12 13 13 13 13 12 10 10 9 7 5 4 5 4 4 5 6 7 6 6 3 4 2 2 1 2 2 3 2 1 1
17 17 14 9 9 9 8 9 3 2 3 5 8 9 9 10 11 11 12 14 14 12 12 12 11 10 9 7 7 6 5 5 4 5 7 7 6 5 1 3 3 1 2 2 3 2 2 2 1
16 16 16 13 10 9 10 8 1 3 3 5 8 9 11 12 13 13 13 13 13 13 12 12 11 11 10 8 6 6 6 5 5 4 6 7 6 6 5 3 3 3 3 2 1 1 1 3 3
17 16 15 14 13 12 10 8 3 2 4 5 7 9 10 12 15 14 13 13 13 14 14 13 12 11 10 9 7 6 5 3 4 6 5 6 6 5 3 4 1 3 3 4 2 2 2 1 2
16 16 16 15 14 11 9 8 4 3 4 6 7 9 11 12 14 14 13 13 13 14 14 12 12 11 10 10 9 10 8 6 7 6 6 6 6 6 6 4 3 1 1 5 4 4 1 1 2
16 16 14 14 13 13 10 8 3 4 5 7 9 11 12 12 14 14 14 13 13 13 13 12 11 11 11 10 10 9 8 7 6 7 8 7 5 5 6 5 4 2 1 4 1 3 1 1 2
15 15 14 13 11 12 10 9 6 5 6 7 9 11 12 12 13 13 13 12 11 11 12 12 11 10 10 10 10 10 9 8 8 8 8 7 6 5 6 6 5 4 2 4 2 2 3 1 2
14 12 11 10 8 8 9 8 7 5 7 7 10 11 11 12 12 13 13 12 11 11 12 12 12 11 11 10 9 9 9 9 8 8 9 7 7 6 7 7 6 4 3 4 3 2 1 2 1
14 15 13 12 8 6 4 5 5 2 4 7 10 11 11 12 12 13 13 12 11 11 11 12 12 11 11 11 9 8 9 7 7 8 7 7 6 6 9 8 7 5 5 5 4 4 4 3 2
17 16 16 15 15 12 6 5 3 2 3 7 10 11 10 11 12 12 13 13 11 11 10 11 12 12 12 11 9 9 9 8 8 8 7 6 5 6 10 8 8 6 5 4 5 4 3 4 4
17 15 10 11 11 11 6 2 1 4 4 8 10 10 10 11 12 12 12 12 12 12 10 10 11 11 11 10 10 9 9 8 7 7 7 6 5 5 8 7 7 7 6 5 5 4 4 3 4
14 15 13 10 10 9 7 3 3 5 6 6 9 11 11 11 11 11 11 11 11 11 11 10 10 10 10 10 9 8 9 9 8 7 6 6 4 5 6 6 6 6 6 6 6 6 5 6 6
14 14 14 11 11 10 8 3 7 7 5 5 8 11 11 10 11 11 10 10 10 11 11 10 10 10 9 9 8 8 8 8 8 7 6 6 5 5 6 6 5 6 6 6 7 7 6 5 6
Wind_Direction
233 241 235 248 264 256 301 49 53 49 51 47 42 41 58 51 61 98 134 134 125 128 132 133 131 131 129 128 129 129 127 125 123 121 118 117 114 110 106 102 100 99 97 96 95 94 93 94 95
258 256 243 241 259 289 35 57 59 58 56 55 56 50 70 69 77 109 127 128 130 132 138 136 134 133 130 129 129 129 128 127 125 123 121 118 115 111 109 104 101 100 99 98 97 96 96 97 99
262 266 267 240 254 284 41 55 59 67 65 52 51 56 61 72 81 112 130 134 134 135 136 135 138 135 133 131 131 131 131 130 127 126 124 121 118 115 112 107 102 100 100 99 97 97 97 99 101
261 256 260 272 286 329 45 57 59 67 69 67 67 70 73 70 95 121 135 139 134 135 135 139 140 137 136 134 133 133 132 130 128 127 125 123 118 115 112 107 103 102 101 99 98 98 99 100 103
251 261 257 277 293 347 54 52 56 58 45 57 79 98 91 86 104 125 142 139 135 137 136 140 141 139 139 138 137 135 132 131 129 127 126 122 117 115 113 110 107 104 101 101 101 100 102 103 105
263 257 264 287 297 5 54 55 47 45 35 42 80 108 110 121 123 134 146 141 140 134 133 139 141 141 141 140 140 138 136 134 132 129 127 123 122 117 114 112 110 107 104 104 104 103 103 106 109
262 277 279 287 288 18 30 42 26 49 68 19 53 111 118 115 122 139 144 135 133 132 133 140 143 142 143 143 143 141 139 138 138 134 130 129 127 124 121 117 116 113 110 110 110 110 110 112 117
264 288 300 301 313 12 22 16 2 351 66 61 27 107 133 134 140 141 141 135 132 133 137 145 147 146 149 147 146 145 143 142 140 139 139 139 137 135 134 128 124 122 120 121 121 123 125 129 135
261 270 284 297 327 357 0 347 331 325 11 65 40 78 131 140 147 146 148 139 133 136 144 153 150 152 155 152 148 148 148 147 147 150 152 155 156 146 150 129 133 134 133 136 140 146 153 156 165
245 261 278 308 336 340 339 327 312 292 38 83 93 108 132 146 150 155 159 154 146 147 157 154 149 157 158 151 147 153 157 155 168 161 168 180 166 150 136 137 145 148 149 154 166 177 188 199 184
251 263 285 306 321 326 320 315 318 314 48 120 149 153 150 153 159 165 166 163 154 156 154 146 148 159 151 137 151 160 156 161 176 165 174 170 155 148 138 152 155 166 169 179 173 197 212 196 169
255 275 287 295 303 303 306 311 315 346 56 106 139 154 156 162 168 172 168 165 157 150 147 146 144 149 136 141 150 151 149 160 156 162 178 164 157 146 141 154 169 176 172 172 179 201 184 133 149
255 265 274 280 283 289 291 293 319 10 60 97 127 144 156 166 168 171 167 163 157 153 153 150 144 133 129 130 151 156 147 161 155 164 183 164 153 140 129 123 144 169 148 162 181 162 121 108 160
277 279 282 285 282 277 282 303 345 4 288 134 137 145 157 165 163 163 164 164 158 154 150 144 140 134 133 139 151 150 149 154 155 165 165 172 142 124 129 128 128 111 118 112 150 142 131 178 155
277 280 281 280 272 266 284 292 171 198 220 174 144 145 148 154 157 164 163 160 158 154 147 142 142 141 147 156 169 167 159 162 150 141 144 163 139 133 139 138 172 135 127 131 163 138 152 185 170
274 268 266 265 264 259 266 277 159 201 199 155 147 141 139 141 158 161 158 157 153 151 151 154 155 150 158 169 177 169 158 146 137 139 143 151 131 142 162 155 139 147 153 152 144 185 175 158 146
265 265 265 260 244 258 275 297 154 212 195 160 147 137 143 146 154 150 154 154 152 152 155 161 153 157 164 171 175 155 135 130 134 141 139 144 146 151 178 113 107 196 170 161 181 134 123 139 148
268 278 275 272 266 269 283 285 205 201 195 167 152 149 154 152 149 146 150 150 150 154 158 160 159 159 161 167 163 145 135 137 132 126 130 147 155 160 172 134 141 241 147 105 73 87 74 55 209
274 287 292 284 279 284 291 292 269 173 204 170 160 158 160 155 147 143 149 152 154 156 159 162 165 164 164 167 166 162 158 155 149 144 144 156 151 147 223 119 149 250 103 114 140 135 162 221 212
273 279 284 287 288 289 292 289 270 168 213 181 167 165 162 155 150 149 152 160 163 164 166 167 172 169 168 170 171 168 162 167 154 139 145 153 151 159 177 131 176 140 120 114 105 127 212 217 176
269 269 273 283 286 281 291 286 268 190 190 172 172 161 162 163 159 159 164 168 170 170 172 175 174 172 172 170 168 164 153 165 140 141 157 161 159 171 130 138 149 139 176 150 187 203 237 247 177
263 265 271 277 281 283 286 285 262 229 204 183 178 165 168 161 158 161 167 172 176 174 173 172 170 172 173 175 177 170 172 175 166 162 157 159 168 167 149 154 131 150 110 140 201 177 234 259 254
264 270 273 278 283 282 283 287 244 197 197 196 181 169 162 158 160 163 170 176 177 175 173 170 170 174 177 181 182 184 179 174 166 157 151 163 170 174 161 158 150 175 198 134 133 122 248 261 273
258 268 272 274 277 275 282 280 262 205 179 173 166 154 153 157 159 162 167 170 172 173 170 169 168 176 180 182 184 192 185 180 168 160 160 173 167 181 170 162 156 186 174 130 145 146 201 307 341
242 249 258 255 255 266 293 274 258 185 157 158 146 144 148 154 159 162 168 170 173 175 172 172 171 175 180 183 188 192 188 182 173 171 172 184 176 179 173 170 165 188 153 150 167 187 231 204 274
242 241 248 264 268 270 266 260 273 139 136 133 134 140 149 157 159 162 166 166 171 175 174 174 174 175 179 182 187 187 180 181 180 185 181 194 193 178 163 162 170 187 174 181 173 202 203 182 206
244 246 252 262 268 269 232 223 253 182 162 146 141 142 150 151 153 161 164 166 170 175 177 178 175 176 182 184 182 181 182 190 185 178 190 195 192 167 159 165 172 185 185 196 170 231 214 158 200
240 250 255 261 273 280 273 285 298 257 208 155 146 146 146 148 154 158 162 166 170 173 173 172 172 178 181 182 183 183 183 191 186 181 190 191 184 161 156 166 174 184 183 193 198 234 208 193 215
225 238 252 268 272 276 287 275 208 238 248 182 154 147 148 149 149 152 158 164 168 170 171 170 170 172 178 182 185 180 179 184 184 187 186 182 179 163 169 176 179 188 190 191 200 237 213 201 220
238 234 236 249 266 273 280 250 168 185 229 219 154 145 143 144 144 146 148 153 164 169 171 172 172 175 178 180 179 180 177 177 181 185 182 179 178 182 184 186 188 199 200 196 201 226 231 213 220
Height
1488 1488 1488 1491 1490 1487 1478 1464 1459 1462 1463 1466 1467 1467 1470 1475 1481 1492 1491 1491 1493 1495 1499 1503 1506 1509 1512 1514 1517 1519 1521 1523 1525 1527 1528 1530 1531 1533 1534 1535 1536 1538 1539 1540 1540 1541 1543 1544 1545
1488 1489 1491 1489 1490 1488 1475 1462 1462 1464 1466 1467 1468 1469 1471 1477 1481 1486 1490 1492 1494 1496 1500 1503 1507 1510 1512 1515 1517 1520 1522 1524 1526 1528 1530 1531 1533 1535 1536 1537 1538 1539 1540 1541 1542 1543 1544 1545 1547
1488 1489 1489 1484 1485 1480 1471 1461 1462 1463 1466 1467 1469 1471 1474 1480 1484 1487 1490 1493 1495 1497 1500 1503 1507 1510 1513 1516 1518 1521 1523 1525 1527 1529 1531 1533 1535 1536 1537 1539 1540 1541 1542 1543 1544 1545 1546 1547 1549
1490 1489 1486 1481 1477 1463 1459 1459 1460 1463 1466 1467 1470 1473 1478 1482 1485 1488 1491 1494 1495 1498 1500 1504 1507 1510 1513 1516 1519 1522 1524 1526 1529 1531 1533 1534 1536 1538 1539 1540 1541 1542 1543 1544 1546 1547 1548 1549 1551
1490 1487 1486 1483 1473 1457 1455 1458 1461 1463 1465 1467 1469 1474 1480 1484 1485 1487 1491 1494 1496 1498 1501 1504 1508 1511 1514 1517 1520 1523 1525 1527 1530 1532 1534 1536 1537 1539 1540 1541 1543 1544 1545 1546 1547 1549 1550 1551 1552
1488 1481 1487 1484 1470 1457 1455 1458 1460 1463 1465 1467 1469 1473 1480 1483 1485 1488 1491 1494 1496 1498 1501 1504 1509 1512 1515 1518 1521 1523 1526 1528 1531 1533 1535 1537 1539 1540 1541 1543 1544 1545 1546 1548 1549 1550 1551 1553 1554
1487 1480 1479 1474 1466 1459 1456 1457 1459 1461 1464 1467 1468 1473 1480 1484 1485 1488 1491 1494 1497 1499 1501 1504 1509 1513 1516 1519 1522 1524 1527 1529 1532 1534 1536 1538 1540 1541 1543 1544 1545 1546 1548 1549 1550 1551 1553 1554 1555
1483 1478 1477 1470 1464 1461 1456 1457 1459 1461 1463 1467 1469 1471 1479 1482 1485 1487 1491 1494 1497 1499 1501 1505 1509 1513 1516 1519 1523 1525 1528 1530 1533 1535 1537 1539 1541 1542 1544 1545 1546 1547 1549 1550 1551 1553 1554 1555 1557
1481 1481 1479 1468 1461 1458 1455 1456 1458 1460 1463 1466 1469 1472 1477 1481 1485 1488 1491 1495 1497 1499 1502 1506 1510 1513 1517 1520 1523 1526 1529 1531 1534 1536 1538 1540 1542 1543 1544 1546 1547 1548 1549 1551 1552 1554 1555 1556 1558
1476 1477 1471 1459 1455 1455 1455 1456 1456 1458 1462 1465 1471 1475 1478 1481 1484 1487 1490 1494 1497 1500 1503 1508 1511 1514 1518 1521 1523 1526 1530 1532 1535 1537 1539 1541 1543 1545 1546 1547 1548 1549 1550 1551 1553 1554 1556 1557 1558
1470 1468 1461 1457 1455 1456 1455 1455 1455 1456 1460 1465 1469 1473 1477 1481 1484 1486 1490 1493 1496 1498 1503 1508 1511 1515 1519 1521 1523 1527 1530 1533 1535 1538 1540 1542 1544 1545 1546 1547 1548 1550 1551 1552 1553 1555 1556 1558 1559
1467 1463 1460 1457 1456 1456 1455 1454 1454 1456 1460 1464 1466 1471 1475 1479 1482 1485 1488 1492 1495 1498 1502 1507 1510 1515 1518 1521 1524 1527 1531 1533 1536 1538 1541 1543 1545 1546 1547 1548 1549 1550 1551 1553 1554 1555 1557 1558 1559
1463 1461 1459 1456 1455 1454 1454 1453 1455 1459 1462 1464 1467 1470 1474 1477 1480 1483 1486 1490 1494 1498 1501 1505 1509 1513 1517 1520 1525 1528 1531 1533 1536 1538 1541 1543 1545 1546 1547 1548 1549 1551 1552 1553 1554 1555 1556 1558 1559
1461 1458 1456 1454 1453 1452 1451 1452 1455 1462 1462 1464 1466 1469 1472 1475 1479 1481 1485 1488 1492 1496 1500 1505 1509 1511 1516 1520 1524 1527 1530 1533 1535 1538 1540 1543 1544 1546 1547 1548 1549 1551 1552 1553 1554 1555 1556 1557 1559
1460 1458 1456 1454 1451 1448 1450 1454 1455 1459 1460 1463 1465 1468 1471 1474 1477 1479 1482 1486 1490 1495 1499 1503 1507 1511 1515 1519 1523 1526 1529 1532 1535 1537 1540 1542 1544 1545 1547 1548 1549 1550 1551 1553 1554 1555 1556 1557 1559
1458 1459 1462 1453 1449 1445 1451 1459 1455 1457 1458 1460 1464 1467 1471 1474 1476 1479 1481 1485 1489 1494 1498 1502 1507 1510 1515 1519 1523 1526 1530 1532 1534 1537 1539 1541 1543 1544 1546 1548 1549 1550 1551 1552 1553 1554 1556 1557 1558
1460 1463 1460 1452 1444 1442 1446 1453 1451 1454 1455 1458 1462 1467 1470 1473 1476 1478 1481 1485 1489 1492 1497 1502 1506 1510 1514 1518 1522 1526 1528 1531 1534 1536 1538 1540 1542 1544 1546 1547 1548 1550 1551 1552 1553 1554 1555 1557 1558
1464 1459 1456 1454 1444 1441 1445 1447 1445 1449 1452 1456 1460 1465 1469 1472 1475 1478 1480 1484 1488 1492 1497 1501 1506 1510 1514 1518 1521 1524 1527 1530 1533 1535 1537 1539 1541 1543 1545 1546 1548 1549 1551 1551 1552 1553 1555 1556 1557
1452 1452 1453 1447 1440 1441 1444 1445 1443 1447 1450 1454 1459 1463 1467 1471 1475 1477 1480 1484 1488 1492 1496 1500 1505 1508 1511 1515 1519 1522 1526 1529 1532 1534 1536 1538 1541 1542 1544 1546 1546 1548 1549 1550 1552 1553 1554 1556 1557
1450 1454 1452 1444 1437 1440 1443 1443 1442 1444 1448 1452 1456 1461 1465 1469 1473 1477 1480 1484 1487 1490 1494 1499 1503 1506 1510 1514 1518 1522 1525 1528 1531 1533 1535 1537 1540 1542 1544 1545 1546 1547 1548 1550 1551 1552 1554 1555 1557
1451 1452 1450 1448 1440 1438 1444 1449 1446 1446 1448 1452 1454 1459 1463 1467 1471 1476 1480 1483 1486 1489 1492 1497 1500 1505 1509 1513 1517 1521 1524 1527 1530 1532 1534 1536 1539 1541 1543 1544 1546 1546 1548 1549 1550 1551 1553 1555 1556
1453 1443 1443 1444 1448 1451 1450 1467 1454 1451 1450 1450 1454 1457 1462 1465 1470 1474 1478 1482 1485 1488 1492 1495 1499 1503 1506 1511 1515 1518 1521 1524 1527 1530 1533 1535 1537 1539 1541 1543 1544 1545 1547 1548 1549 1551 1552 1554 1555
1444 1438 1439 1442 1447 1453 1452 1463 1460 1449 1452 1449 1450 1454 1458 1464 1468 1473 1477 1481 1485 1488 1491 1494 1497 1501 1504 1508 1512 1516 1519 1523 1526 1529 1531 1534 1536 1538 1540 1542 1543 1544 1546 1547 1548 1549 1551 1553 1554
1438 1440 1442 1444 1451 1469 1464 1468 1463 1448 1445 1443 1445 1450 1456 1461 1466 1471 1476 1480 1483 1487 1490 1492 1495 1498 1502 1506 1510 1513 1517 1520 1524 1526 1529 1532 1534 1537 1539 1540 1542 1544 1545 1546 1547 1548 1550 1551 1552
1438 1451 1465 1471 1475 1478 1464 1467 1457 1437 1433 1436 1441 1447 1454 1460 1465 1470 1474 1478 1481 1485 1487 1490 1493 1496 1500 1504 1507 1511 1515 1518 1521 1524 1527 1530 1533 1535 1537 1539 1540 1542 1544 1545 1546 1547 1549 1550 1551
1438 1444 1465 1477 1478 1476 1469 1473 1451 1433 1433 1435 1440 1446 1452 1458 1463 1468 1472 1476 1480 1483 1486 1488 1491 1494 1497 1501 1505 1508 1512 1515 1519 1522 1525 1528 1531 1533 1535 1537 1539 1541 1542 1544 1545 1547 1547 1548 1549
1438 1438 1434 1447 1454 1463 1462 1457 1444 1435 1434 1435 1440 1445 1450 1455 1461 1466 1470 1474 1478 1481 1483 1486 1489 1492 1495 1498 1502 1506 1509 1513 1516 1520 1523 1527 1529 1532 1533 1535 1537 1539 1541 1542 1544 1545 1546 1547 1548
1426 1429 1436 1447 1462 1469 1461 1461 1461 1448 1438 1435 1439 1444 1449 1454 1459 1464 1468 1472 1475 1479 1482 1484 1487 1489 1492 1496 1500 1503 1506 1510 1514 1517 1520 1524 1527 1530 1531 1533 1535 1537 1539 1540 1542 1543 1545 1546 1546
1428 1432 1434 1438 1441 1460 1470 1468 1448 1446 1440 1437 1438 1442 1447 1452 1457 1462 1467 1471 1474 1477 1480 1483 1485 1488 1491 1494 1497 1501 1504 1507 1511 1515 1518 1521 1524 1527 1529 1531 1534 1535 1537 1539 1540 1541 1543 1544 1544
1419 1425 1431 1446 1447 1444 1455 1458 1436 1439 1439 1437 1437 1441 1446 1451 1456 1461 1465 1469 1473 1476 1479 1481 1484 1487 1489 1492 1495 1499 1502 1505 1508 1512 1515 1518 1521 1524 1527 1529 1531 1533 1535 1537 1538 1540 1541 1542 1543